Regional Weather Roundup
Issued by NWS

Home | Current Version | Previous Version | Graphics & Text | Print | Product List | Glossary On
Versions: 1 2 3 4 5 6 7 8 9 10 11 12 13 14 15 16 17 18 19 20 21 22 23 24 25 26 27 28 29 30 31 32 33 34 35 36 37 38 39 40 41 42 43 44 45 46 47 48 49 50
000
ASUS43 KOAX 100302
RWRNE

WEATHER ROUNDUP FOR NEBRASKA
NATIONAL WEATHER SERVICE OMAHA NE
900 PM CST FRI DEC 09 2016

NOTES: SATELLITE DATA IS BEING USED TO AUGMENT CLOUD COVER ABOVE
       12000 FEET.
       "FAIR" INDICATES FEW OR NO CLOUDS BELOW 12,000 FEET WITH NO
       SIGNIFICANT WEATHER AND/OR OBSTRUCTIONS TO VISIBILITY.

  * THESE STATIONS DO NOT REPORT WEATHER SUCH AS RAIN...SNOW OR FOG.

NEZ001>004-019>022-054>056-100400-
NEBRASKA PANHANDLE

CITY           SKY/WX    TMP DP  RH WIND       PRES   REMARKS
SCOTTSBLUFF    CLOUDY    14   5  67 E10       30.19F WCI   1
ALLIANCE       CLOUDY     7   2  80 NE7       30.22F WCI  -5
CHADRON        CLOUDY     4  -1  80 NE5       30.30F WCI  -5
KIMBALL        CLOUDY    19  16  86 SE7       30.13S WCI  10
SIDNEY         CLOUDY    19  12  74 E6        30.18S WCI  11
$$

NEZ057>060-069>072-079>082-100400-
SOUTHWEST NEBRASKA

CITY           SKY/WX    TMP DP  RH WIND       PRES   REMARKS
NORTH PLATTE   CLOUDY    14   9  80 E6        30.30R WCI   5
IMPERIAL       CLOUDY    18  13  80 SE5       30.23F WCI  11
LEXINGTON      CLOUDY    18  11  75 SE8       30.33F WCI   8
MCCOOK         CLOUDY    16  10  77 E9        30.28F WCI   4
OGALLALA       CLOUDY    17  13  84 NE3       30.24F
$$

NEZ005>010-023>029-035>040-094-100400-
NORTH CENTRAL NEBRASKA

CITY           SKY/WX    TMP DP  RH WIND       PRES   REMARKS
VALENTINE      CLOUDY     7   2  80 NE8       30.40R WCI  -6
AINSWORTH      CLOUDY    10   8  92 NE9       30.38R WCI  -4
BROKEN BOW     CLOUDY     9   5  84 CALM      30.32F
O`NEILL        CLOUDY    11   9  91 NE7       30.40F WCI   0
ORD            CLOUDY    15   8  73 SE3       30.35
THEDFORD       MOCLDY    10   7  87 N10       30.31R WCI  -3
$$

NEZ041-046>049-061>064-073>077-083>087-100400-
SOUTH CENTRAL NEBRASKA

CITY           SKY/WX    TMP DP  RH WIND       PRES   REMARKS
GRAND ISLAND   CLOUDY    17  12  80 SE3       30.40F
AURORA         CLOUDY    18  12  76 CALM      30.40F
HASTINGS       CLOUDY    18  11  74 SE7       30.39F WCI   9
HEBRON         CLOUDY    20  14  75 SE3       30.43F
HOLDREGE       CLOUDY    15  10  82 E9        30.35S WCI   3
KEARNEY *      CLOUDY    12   7  79 SE6       30.37S WCI   3
YORK           CLOUDY    23  14  68 S6        30.43F WCI  16
$$

NEZ011>018-030>034-042>045-100400-
NORTHEAST NEBRASKA

CITY           SKY/WX    TMP DP  RH WIND       PRES   REMARKS
NORFOLK        CLOUDY    18  10  71 SE6       30.44S WCI  10
ALBION         CLOUDY    19  12  73 E6        30.40F WCI  11
BLAIR          CLOUDY    22  13  68 SE6       30.48S WCI  14
FREMONT        CLOUDY    21  13  70 SE5       30.48F WCI  15
TEKAMAH        CLOUDY    20  11  68 CALM      30.51F
WAYNE          CLOUDY    18  11  74 S3        30.48R
$$

NEZ050>053-065>068-078-088>093-100400-
SOUTHEAST NEBRASKA

CITY           SKY/WX    TMP DP  RH WIND       PRES   REMARKS
LINCOLN        CLOUDY    23  14  68 SE5       30.49F WCI  17
OMAHA EPPLEY   CLOUDY    22  12  65 SE6       30.51F WCI  14
BEATRICE       CLOUDY    25  14  63 SE6       30.46F WCI  18
FALLS CITY     CLOUDY    25  14  63 SE3       30.52S
NEBRASKA CITY  CLOUDY    23  11  61 SE3       30.49F
PLATTSMOUTH    CLOUDY    22  10  58 SE8       30.49F WCI  13
$$

NEZ044-045-051>053-067-100400-
OMAHA AREA

CITY           SKY/WX    TMP DP  RH WIND       PRES   REMARKS
OMAHA EPPLEY   CLOUDY    22  12  65 SE6       30.51F WCI  14
BLAIR          CLOUDY    22  13  68 SE6       30.48S WCI  14
FREMONT        CLOUDY    21  13  70 SE5       30.48F WCI  15
MILLARD        CLOUDY    24  13  64 SE6       30.50F WCI  17
OFFUTT AFB     CLOUDY    22  13  69 E6        30.50F WCI  14
PLATTSMOUTH    CLOUDY    22  10  58 SE8       30.49F WCI  13
WAHOO          CLOUDY    22  13  70 SE5       30.48F WCI  15
$$




USA.gov is the U.S. government's official web portal to all federal, state and local government web resources and services.